Probability
61 55 42 35 39 39 35 39 35 29 23 26 26 23 23 26 23 26 10 16 16 16 13 6 13 6 10 6 6 3 13 3 3 10 6 13 23 6 3 6 10 10 0
52 48 42 32 26 29 26 23 26 29 26 26 26 19 16 19 19 16 13 3 6 6 6 0 0 0 13 10 10 6 6 10 3 10 6 6 6 6 3 19 0 0 0
35 35 32 32 26 32 23 23 26 26 23 23 26 23 16 19 19 13 6 6 3 0 0 0 0 3 3 6 3 10 6 0 6 6 3 10 6 0 6 0 0 3 0
32 32 29 29 32 32 29 29 19 19 23 19 23 23 13 10 10 10 6 6 3 0 0 0 0 0 0 3 3 6 3 0 3 10 6 10 10 3 10 10 6 3 6
29 29 26 29 26 26 26 23 19 19 13 19 16 10 10 6 6 10 10 3 6 3 0 0 0 0 0 0 0 6 3 10 6 0 3 3 6 3 6 6 6 3 3
23 23 23 19 23 26 23 19 19 16 16 16 16 10 10 6 3 0 3 3 6 6 3 0 0 0 0 0 0 0 0 0 0 0 0 0 0 0 0 0 0 0 0
26 23 23 23 23 26 19 19 16 19 16 16 6 6 6 3 0 0 0 3 10 10 6 3 0 0 0 0 0 0 0 0 0 0 0 0 0 0 0 0 0 0 0
23 23 23 23 19 26 19 19 19 19 16 6 3 3 6 3 0 0 0 0 6 6 6 6 0 0 0 0 0 0 0 0 0 0 0 0 0 0 0 0 0 0 0
26 26 23 23 23 19 16 19 19 16 6 6 3 6 6 3 0 0 0 0 3 0 3 3 0 0 0 0 0 0 0 0 0 0 0 0 0 0 0 0 0 0 0
23 23 23 23 26 26 19 16 6 6 6 3 3 3 3 3 0 0 0 0 0 0 0 0 0 0 0 0 0 0 0 0 0 0 0 0 0 0 0 0 0 0 0
19 23 23 26 23 19 13 6 0 0 3 3 0 0 0 0 0 0 0 0 0 0 0 0 0 0 0 0 0 0 0 0 0 0 0 0 0 0 0 0 0 0 0
23 19 16 23 13 6 10 3 0 0 0 0 0 0 0 0 0 0 0 0 0 0 0 0 0 0 0 0 0 0 0 0 0 0 0 0 0 0 0 0 0 0 0
19 26 23 6 3 0 3 0 0 0 0 0 0 0 0 0 0 0 0 0 0 0 0 0 0 0 0 0 0 0 0 0 0 0 0 0 0 0 0 0 0 0 0
13 6 3 3 0 0 0 0 0 0 0 0 0 0 0 0 0 0 0 0 0 0 0 0 0 0 0 0 0 0 0 0 0 0 0 0 0 0 0 0 0 0 0
6 0 3 3 0 0 0 0 0 0 0 0 0 0 0 0 0 0 0 0 0 0 0 0 0 0 0 0 0 0 0 0 0 0 0 0 0 0 0 0 0 0 0
0 0 0 0 0 0 0 0 0 0 0 0 0 0 0 0 0 0 0 0 0 0 0 0 0 0 0 0 0 0 0 0 0 0 0 0 0 0 0 0 0 0 0
0 0 0 0 0 0 0 0 0 0 0 0 0 0 0 0 0 0 0 0 0 0 0 0 0 0 0 0 0 0 0 0 0 0 0 0 0 0 0 0 0 0 0
0 0 0 0 0 0 0 0 0 0 0 0 0 0 0 0 0 0 0 0 0 0 0 0 0 0 0 0 0 0 0 0 0 0 0 0 0 0 0 0 0 0 0
0 0 0 0 0 0 0 0 0 0 0 0 0 0 0 0 0 0 0 0 0 0 0 0 0 0 0 0 0 0 0 0 0 0 0 0 0 0 0 0 0 0 0
0 0 0 0 0 0 0 0 0 0 0 0 0 0 0 0 0 0 0 0 0 0 0 0 0 0 0 0 0 0 0 0 0 0 0 0 0 0 0 0 0 0 0
0 0 0 0 0 0 0 0 0 0 0 0 0 0 0 0 0 0 0 0 0 0 0 0 0 0 0 0 0 0 0 0 0 0 0 0 0 0 0 0 0 0 0
0 0 0 0 0 0 0 0 0 0 0 0 0 0 0 0 0 0 0 0 0 0 0 0 0 0 0 0 0 0 0 0 0 0 0 0 0 0 0 0 0 0 0
0 0 0 0 0 0 0 0 0 0 0 0 0 0 0 0 0 0 0 0 0 0 0 0 0 0 0 0 0 0 0 0 0 0 0 0 0 0 0 0 0 0 0
0 0 0 0 0 0 0 0 0 0 0 0 0 0 0 0 0 0 0 0 0 0 0 0 0 0 0 0 0 0 0 0 0 0 0 0 0 0 0 0 0 0 0
0 0 0 0 0 0 0 0 0 0 0 0 0 0 0 0 0 0 0 0 0 0 0 0 0 0 0 0 0 0 0 0 0 0 0 0 0 0 0 0 0 0 0
0 0 0 0 0 0 0 0 0 0 0 0 0 0 0 0 0 0 0 0 0 0 0 0 0 0 0 0 0 0 0 0 0 0 0 0 0 0 0 0 0 0 0
Height
5841 5841 5841 5841 5841 5842 5843 5844 5845 5846 5847 5848 5850 5851 5853 5855 5856 5858 5859 5860 5861 5862 5862 5863 5863 5864 5864 5864 5864 5864 5863 5863 5862 5861 5861 5860 5859 5859 5857 5856 5855 5854 5853
5839 5838 5838 5838 5838 5839 5839 5840 5842 5842 5843 5844 5846 5847 5849 5850 5852 5853 5854 5855 5856 5856 5857 5857 5857 5858 5858 5857 5857 5857 5856 5856 5855 5855 5854 5853 5852 5851 5850 5848 5847 5846 5844
5836 5836 5835 5835 5835 5836 5837 5837 5838 5839 5840 5841 5842 5843 5844 5845 5847 5848 5849 5850 5850 5851 5851 5851 5851 5851 5851 5851 5850 5850 5849 5849 5848 5847 5846 5845 5844 5842 5841 5839 5838 5836 5835
5834 5833 5832 5832 5832 5833 5834 5834 5835 5835 5836 5836 5838 5839 5840 5840 5841 5843 5844 5844 5844 5845 5845 5844 5844 5844 5844 5844 5843 5843 5842 5841 5840 5839 5838 5836 5835 5833 5832 5830 5829 5827 5825
5831 5830 5830 5830 5830 5831 5831 5831 5832 5833 5833 5833 5833 5834 5835 5836 5837 5838 5838 5838 5838 5838 5838 5838 5837 5837 5837 5836 5836 5835 5834 5833 5832 5830 5829 5827 5826 5824 5822 5820 5818 5816 5814
5828 5828 5828 5828 5827 5828 5828 5828 5829 5829 5829 5829 5829 5830 5831 5832 5832 5832 5832 5832 5832 5832 5831 5831 5830 5830 5829 5829 5828 5827 5826 5825 5823 5822 5820 5818 5816 5814 5812 5810 5807 5805 5803
5826 5825 5825 5825 5825 5825 5824 5825 5825 5825 5825 5825 5825 5826 5826 5827 5827 5827 5826 5826 5826 5825 5825 5824 5823 5822 5822 5821 5820 5819 5817 5815 5814 5812 5810 5808 5806 5804 5801 5798 5795 5793 5790
5822 5822 5821 5821 5821 5820 5820 5820 5821 5821 5821 5821 5822 5822 5821 5822 5821 5821 5821 5820 5820 5819 5818 5817 5816 5815 5814 5813 5811 5809 5808 5806 5804 5802 5800 5797 5795 5792 5789 5786 5783 5779 5776
5818 5817 5817 5817 5816 5816 5816 5816 5816 5816 5816 5816 5816 5816 5816 5816 5816 5815 5815 5814 5813 5812 5811 5810 5809 5807 5806 5804 5802 5800 5798 5796 5794 5791 5788 5785 5782 5779 5775 5772 5769 5765 5761
5812 5812 5812 5812 5812 5811 5811 5811 5811 5811 5811 5811 5811 5811 5810 5810 5809 5809 5808 5807 5806 5805 5804 5802 5800 5799 5797 5795 5793 5790 5788 5785 5782 5779 5776 5773 5769 5766 5762 5758 5754 5750 5745
5806 5806 5806 5806 5806 5806 5805 5805 5805 5805 5805 5805 5804 5804 5803 5803 5802 5801 5801 5800 5799 5797 5795 5794 5792 5790 5787 5785 5782 5780 5777 5774 5770 5767 5763 5759 5755 5751 5747 5743 5738 5733 5728
5800 5800 5800 5800 5800 5799 5799 5799 5799 5799 5798 5798 5798 5797 5796 5796 5795 5794 5793 5792 5790 5789 5787 5785 5783 5780 5778 5775 5772 5768 5765 5762 5758 5753 5749 5745 5740 5736 5731 5726 5721 5715 5710
5793 5793 5793 5793 5793 5792 5792 5792 5792 5792 5791 5791 5791 5790 5789 5788 5787 5786 5785 5784 5782 5780 5778 5775 5772 5770 5767 5764 5760 5757 5753 5749 5744 5740 5735 5730 5725 5720 5714 5709 5703 5698 5692
5786 5786 5786 5786 5785 5785 5785 5785 5785 5785 5784 5783 5783 5782 5781 5780 5779 5778 5777 5775 5773 5770 5768 5765 5762 5759 5756 5753 5749 5745 5740 5736 5731 5726 5720 5715 5709 5704 5698 5692 5686 5679 5673
5778 5778 5778 5778 5778 5778 5778 5777 5777 5777 5777 5776 5775 5774 5773 5773 5771 5770 5768 5766 5764 5761 5758 5755 5752 5749 5745 5741 5737 5732 5728 5723 5717 5712 5706 5700 5694 5688 5682 5675 5669 5662 5655
5771 5771 5771 5771 5771 5771 5771 5770 5770 5769 5769 5769 5768 5767 5766 5764 5763 5761 5760 5757 5755 5752 5749 5746 5742 5738 5734 5730 5725 5721 5716 5710 5705 5699 5693 5687 5680 5673 5666 5659 5652 5646 5639
5764 5764 5764 5764 5764 5764 5764 5764 5763 5763 5762 5762 5761 5760 5758 5757 5755 5753 5751 5748 5745 5742 5739 5736 5732 5728 5724 5719 5715 5710 5705 5699 5693 5687 5681 5674 5667 5660 5653 5646 5639 5632 5625
5757 5758 5758 5758 5758 5758 5758 5757 5757 5756 5756 5755 5754 5752 5751 5749 5747 5745 5742 5740 5736 5733 5730 5726 5722 5718 5714 5710 5705 5700 5694 5688 5682 5676 5669 5663 5655 5648 5641 5635 5628 5621 5614
5752 5752 5752 5752 5752 5752 5751 5751 5751 5750 5749 5748 5747 5745 5743 5741 5739 5737 5734 5731 5728 5724 5720 5717 5713 5709 5705 5700 5695 5690 5685 5679 5673 5666 5659 5653 5646 5639 5632 5625 5618 5611 5604
5746 5747 5747 5747 5747 5746 5745 5745 5744 5744 5742 5741 5740 5738 5736 5734 5731 5729 5726 5723 5719 5716 5713 5709 5705 5701 5696 5692 5687 5682 5676 5670 5664 5658 5651 5644 5638 5631 5624 5617 5610 5603 5596
5741 5741 5741 5741 5741 5740 5740 5739 5738 5737 5736 5735 5733 5731 5729 5726 5724 5721 5718 5715 5712 5709 5705 5701 5697 5693 5689 5684 5679 5674 5668 5662 5656 5650 5644 5637 5630 5624 5617 5610 5603 5596 5589
5736 5736 5736 5736 5736 5735 5734 5734 5733 5731 5730 5728 5726 5724 5721 5719 5717 5714 5711 5708 5705 5701 5698 5694 5690 5686 5681 5677 5672 5667 5661 5656 5650 5644 5638 5631 5624 5618 5611 5604 5597 5591 5584
5732 5731 5731 5731 5730 5730 5729 5728 5727 5725 5723 5721 5719 5717 5714 5712 5709 5707 5704 5701 5697 5694 5691 5687 5683 5679 5674 5670 5666 5661 5656 5650 5644 5638 5632 5626 5620 5613 5607 5600 5593 5587 5580
5727 5727 5726 5726 5725 5724 5723 5722 5720 5718 5716 5714 5712 5710 5707 5705 5702 5699 5697 5694 5690 5687 5684 5680 5676 5672 5668 5664 5660 5655 5650 5645 5639 5634 5628 5622 5615 5609 5603 5596 5590 5583 5577
5722 5722 5721 5720 5719 5718 5717 5715 5714 5712 5710 5708 5705 5703 5701 5698 5695 5693 5690 5687 5684 5680 5677 5674 5670 5666 5663 5659 5654 5650 5645 5640 5635 5629 5623 5618 5612 5605 5599 5593 5587 5581 5575
5717 5716 5715 5714 5713 5712 5710 5709 5707 5705 5703 5701 5698 5696 5694 5691 5689 5686 5683 5680 5677 5674 5671 5668 5664 5661 5657 5653 5649 5645 5641 5636 5631 5625 5620 5614 5608 5602 5596 5590 5584 5578 5572
Wind_Speed
8 9 9 10 11 13 14 14 15 16 18 20 20 21 21 21 22 21 21 21 21 22 23 23 23 23 24 24 25 26 27 27 27 28 29 29 29 30 30 31 31 32 32
9 9 10 10 11 12 13 14 15 15 16 18 19 20 20 21 21 22 22 21 21 22 23 23 24 25 26 26 27 27 28 29 29 29 30 31 31 32 32 33 34 34 35
10 10 11 12 12 13 14 15 16 16 16 17 18 19 20 20 22 23 23 23 23 23 23 24 25 26 27 28 29 29 28 29 30 31 32 33 33 34 35 36 36 37 37
11 12 12 12 12 12 13 14 15 15 16 17 18 19 19 19 20 22 23 23 23 24 25 26 27 28 29 29 29 30 30 30 31 32 33 34 36 37 38 38 39 40 40
11 11 12 12 13 14 14 15 15 15 16 17 18 18 19 19 19 21 22 23 24 25 26 27 28 29 29 30 31 31 31 32 32 34 35 36 37 38 39 41 41 42 43
13 12 12 12 13 14 15 15 16 16 16 16 18 18 19 20 21 22 22 23 24 25 26 28 29 29 30 32 32 33 33 33 34 36 37 38 38 39 41 43 44 45 46
15 14 14 14 14 15 15 16 16 16 17 17 18 19 20 20 21 22 23 24 25 25 26 27 28 29 29 32 33 33 34 35 36 37 38 39 41 42 44 45 46 48 49
17 17 17 17 16 16 17 17 17 17 17 17 18 19 20 21 22 23 24 25 25 27 27 28 28 29 30 31 33 34 35 36 37 39 41 43 44 45 46 47 48 50 51
19 18 18 18 19 18 19 19 19 19 19 19 20 21 22 23 24 25 25 26 27 27 28 28 29 30 31 33 34 34 35 36 38 40 42 44 46 47 48 50 51 53 54
22 21 20 21 21 21 21 21 21 22 22 22 23 24 25 25 26 25 26 27 28 28 29 29 30 31 32 34 35 36 37 39 41 43 45 47 48 50 51 52 53 55 56
23 23 22 22 23 23 22 23 23 23 23 24 25 26 26 26 26 26 27 28 29 31 31 32 33 34 35 36 38 39 40 42 44 46 47 49 50 52 53 54 56 57 58
25 24 24 24 24 24 24 24 24 25 25 26 26 27 27 27 26 26 27 28 30 32 33 34 36 37 38 40 41 42 43 45 47 48 50 51 52 54 55 56 57 59 60
26 26 26 27 26 26 27 27 27 27 27 27 27 27 28 27 28 29 30 31 32 34 35 37 38 39 41 43 43 44 45 47 48 49 51 52 53 55 57 58 59 60 61
27 27 27 27 27 27 27 27 28 27 27 27 27 28 28 28 29 30 32 33 34 35 36 37 39 40 41 43 44 45 46 47 48 49 51 53 54 55 56 57 58 59 59
27 27 27 27 27 27 27 26 26 27 27 27 27 27 28 28 29 30 31 32 34 36 37 38 39 40 41 42 43 44 45 46 47 49 50 51 52 53 54 56 56 57 57
25 25 25 25 25 26 26 25 25 25 26 26 26 28 28 28 29 31 32 33 34 35 35 36 37 38 39 40 41 42 43 44 45 46 47 48 50 51 51 52 52 51 51
23 24 24 23 23 24 24 24 25 25 25 25 25 27 27 26 28 29 31 31 32 33 33 34 35 36 37 39 39 40 41 42 43 43 44 45 46 47 47 47 47 47 46
22 22 22 21 21 21 22 23 23 24 24 23 23 25 26 27 28 29 29 30 30 31 32 33 35 35 36 37 37 38 39 40 41 42 42 43 43 43 43 43 43 43 42
21 20 20 20 19 20 21 21 22 21 22 22 23 25 26 26 27 28 28 29 29 30 31 32 33 33 34 35 36 36 37 38 39 39 40 40 40 40 39 40 40 40 39
18 18 18 18 19 19 18 19 20 20 21 22 23 24 25 25 26 27 27 28 29 29 30 31 31 32 33 33 34 34 35 35 36 37 37 37 37 37 37 37 37 36 36
17 17 17 17 17 18 18 18 20 21 22 22 23 24 24 25 25 26 27 27 28 29 29 30 30 30 30 31 31 32 32 33 34 34 35 35 35 35 35 34 34 33 33
15 16 16 15 16 17 17 18 19 20 21 22 22 24 25 25 26 26 27 27 27 28 28 28 28 28 28 29 29 30 31 31 32 33 33 33 33 32 32 32 32 31 31
14 15 15 15 16 16 17 18 19 20 21 22 23 24 25 25 25 25 26 26 26 26 26 26 26 27 27 28 28 29 29 30 30 31 31 31 31 31 31 31 31 30 30
13 13 14 14 15 16 17 18 20 21 22 23 24 24 24 24 24 24 24 25 25 25 25 25 25 25 26 26 26 27 27 28 29 29 29 30 30 30 30 30 30 30 29
13 14 15 16 17 18 19 19 20 22 22 23 23 23 23 23 23 23 23 24 24 24 24 24 24 24 24 24 25 25 26 27 27 28 28 28 29 29 29 29 29 29 29
15 16 17 17 18 19 20 21 22 23 23 23 23 23 23 23 23 23 22 22 22 22 22 23 23 23 23 23 23 24 25 26 26 27 27 28 28 28 29 29 29 29 29
Wind_Direction
276 272 268 261 255 250 245 243 241 241 238 236 239 240 241 243 244 245 247 248 250 251 253 255 257 258 259 260 262 265 266 267 268 269 270 272 273 274 275 276 277 277 277
281 276 269 266 262 253 247 241 244 244 240 239 240 243 245 244 243 246 249 249 251 253 254 255 257 259 260 261 264 266 267 268 269 270 271 273 274 276 277 277 278 277 277
288 282 273 269 263 251 247 244 244 245 242 242 243 244 248 247 245 248 252 252 252 255 256 258 259 260 262 264 266 268 269 269 270 271 273 274 275 276 277 278 279 279 278
288 284 276 270 263 254 250 249 250 250 250 248 247 246 247 248 248 250 253 255 257 257 260 262 262 262 263 265 268 269 270 272 273 274 274 275 276 276 278 280 280 280 279
288 286 282 276 266 259 256 256 257 257 257 252 250 247 248 250 252 254 256 259 261 262 263 264 265 264 264 266 269 271 271 272 273 274 276 276 277 278 278 279 280 280 280
281 279 279 278 273 267 263 263 263 262 259 257 253 251 253 254 256 257 258 262 264 265 266 267 268 267 267 269 269 271 272 273 274 276 276 276 278 279 279 279 280 281 281
279 276 275 272 272 268 264 267 265 262 261 258 257 256 258 258 259 261 262 264 266 269 270 271 272 271 272 273 273 274 276 276 277 277 278 279 280 281 282 282 282 282 283
277 276 274 270 269 268 265 265 265 265 263 262 263 264 263 264 262 262 265 267 270 271 273 275 276 276 275 277 278 279 279 279 279 280 280 281 282 283 283 283 283 284 284
274 273 272 272 269 267 267 266 264 264 264 267 267 267 267 267 267 266 268 270 272 273 275 276 277 277 278 281 283 283 283 283 283 283 283 284 285 285 285 285 285 286 286
274 271 269 271 272 269 267 265 264 264 266 267 268 271 270 269 269 269 271 273 275 277 279 279 280 281 282 283 284 284 285 285 286 286 286 286 286 286 286 287 287 286 286
271 269 268 271 272 269 269 268 267 267 267 268 270 272 271 270 270 271 272 274 277 279 281 282 282 283 284 285 286 286 287 288 289 290 290 289 289 288 288 288 288 288 288
270 268 268 269 271 270 271 270 269 269 270 271 271 271 273 272 271 272 274 277 277 278 280 282 283 284 286 288 288 287 289 290 291 291 291 291 292 291 291 291 291 291 291
268 268 268 270 272 271 271 271 271 272 273 271 273 275 275 274 274 274 277 280 279 279 281 283 285 285 287 288 290 290 292 293 293 293 293 293 294 294 294 293 292 292 292
267 267 267 270 272 272 269 269 268 270 272 273 274 275 276 276 275 278 280 281 281 283 286 288 289 289 290 292 293 294 295 295 296 296 296 296 296 296 296 295 295 295 295
266 267 268 270 270 270 269 268 267 269 273 276 277 278 276 276 279 282 283 284 287 288 289 291 292 293 294 295 295 297 298 298 298 299 300 300 300 299 299 299 298 298 297
267 268 270 270 268 269 269 268 270 274 275 275 276 277 278 280 281 284 286 288 290 292 294 295 295 296 297 298 299 300 301 302 303 303 303 303 304 304 303 303 302 301 301
267 268 269 269 269 269 267 268 272 274 273 274 276 279 281 282 286 288 290 292 295 297 298 299 300 301 302 302 303 304 306 307 307 308 308 308 309 309 308 307 307 306 306
265 264 265 267 268 267 267 270 272 271 272 277 281 285 287 287 289 293 296 298 299 301 301 302 303 304 305 305 307 309 310 311 312 312 313 314 314 313 312 311 311 310 310
262 263 264 266 267 268 267 269 271 275 278 283 285 287 289 291 295 299 300 301 302 304 306 307 308 309 309 310 311 312 314 315 317 318 318 318 317 316 316 315 315 315 314
259 260 262 264 268 270 272 275 278 282 285 287 288 290 294 297 300 302 303 304 306 307 309 310 311 311 312 313 315 316 318 320 322 322 322 322 322 321 322 322 321 321 320
261 263 266 268 269 272 276 281 283 284 286 287 291 297 301 303 304 305 306 308 309 310 310 311 312 313 314 316 318 320 322 324 326 326 327 327 327 327 327 328 328 327 327
262 265 269 273 275 276 279 283 286 289 291 293 298 301 303 303 304 305 307 308 310 310 310 311 313 314 316 319 321 324 325 326 328 329 330 331 331 332 333 334 334 334 333
266 268 273 276 278 281 285 288 290 292 294 298 302 303 304 305 306 306 307 309 310 311 312 313 314 316 319 321 323 326 327 328 329 331 333 335 335 336 337 338 339 338 338
269 273 277 281 284 286 289 292 293 295 298 301 303 304 305 306 306 307 308 310 311 312 313 314 316 318 320 322 324 327 329 331 332 334 335 338 339 340 341 341 342 342 342
274 277 281 285 288 291 293 296 297 299 300 301 302 304 305 305 306 306 308 309 311 312 314 316 317 319 321 323 325 328 331 334 335 337 338 340 341 343 344 344 344 345 345
281 284 287 289 291 293 295 297 299 300 300 301 302 303 303 304 304 305 307 309 311 314 316 317 318 319 321 324 326 329 332 334 336 338 340 341 343 344 345 346 346 347 347